1351446669681901,  0.01835453770, -0.00737551698,  0.00026720582, -0.00001522866,  0.00001003138, -0.00035645069,  0.01745008600,  0.00036851453,  0.00000814213,  0.00000208395,  0.00015505621,  0.04890681868,  0.00130664885,  0.00014617236, -0.00002434147,  0.00011014125, -0.00000812896, -0.00000078001,  0.00007876473,  0.00000003630,  0.00004577585
1351446703076421,  0.01558501719, -0.00707501593,  0.00028389598, -0.00002574924, -0.00001365455, -0.00023825580,  0.01815529860,  0.00030766021,  0.00001697330,  0.00001180718,  0.00021210883,  0.03896239179,  0.00041454512,  0.00088618737, -0.00006896754,  0.00007808977,  0.00001202046, -0.00000287306,  0.00008620401, -0.00000262057,  0.00003732028
1351446707475705,  0.01361466945, -0.00606238510,  0.00030680093, -0.00000037070, -0.00000658430, -0.00015398773,  0.01817879647,  0.00028764974, -0.00000590286,  0.00000491454,  0.00021732544,  0.03121902424,  0.00027775695,  0.00060736639, -0.00000214517,  0.00006278900,  0.00000447498,  0.00000062425,  0.00008649982,  0.00000006742,  0.00003167505
1351446711275091,  0.01253346857, -0.00525302989,  0.00033497156, -0.00000809243, -0.00000815563, -0.00009115943,  0.01919604963,  0.00028303842,  0.00001913616,  0.00001333374,  0.00025508860,  0.02755827929,  0.00041313241,  0.00018706136, -0.00003608297,  0.00007122880,  0.00001158952, -0.00000251234,  0.00008738643, -0.00000194366,  0.00003457867
1351446714874519,  0.01193687800, -0.00415128511,  0.00037015877,  0.00000058909, -0.00000665882, -0.00004097131,  0.02053719060,  0.00026209282,  0.00001923894,  0.00001300861,  0.00030148100,  0.02654150282,  0.00033022015,  0.00010574613, -0.00002368029,  0.00005948477,  0.00000586834, -0.00000154842,  0.00008637840, -0.00000137017,  0.00003108503
1351446718673873,  0.01155004416, -0.00278591151,  0.00039945315,  0.00000729871, -0.00000426841,  0.00000873106,  0.01955677760,  0.00023597194,  0.00001233889, -0.00000057541,  0.00030099065,  0.02534522267,  0.00032287973,  0.00001475132, -0.00001447415,  0.00007841202, -0.00001632885, -0.00000169938,  0.00007823979,  0.00000165141,  0.00003745507
1351446722473256,  0.01167353478, -0.00158615728,  0.00043035516,  0.00000778552,  0.00000172060,  0.00005569022,  0.01820158704,  0.00019648296, -0.00002506126,  0.00000345392,  0.00029010979,  0.02523509529,  0.00037722009,  0.00010622019,  0.00002566663,  0.00006599641, -0.00001454455,  0.00000228662,  0.00005335439, -0.00000063177,  0.00003076513
1351446727472475,  0.01160466147, -0.00197864536,  0.00038191807, -0.00000275966,  0.00001008963,  0.00005759487,  0.01548557325,  0.00020282401, -0.00002891820, -0.00000936554,  0.00024477939,  0.02230480104,  0.00005878614,  0.00030960425,  0.00000868709,  0.00006561510,  0.00001029925,  0.00000329995,  0.00004447324,  0.00000165259,  0.00002644578
1351446731271879,  0.01137468476, -0.00272874913,  0.00033549062, -0.00000005977,  0.00001001650,  0.00003325527,  0.01345995417,  0.00024435442, -0.00001372967, -0.00001156769,  0.00021521505,  0.01978503632, -0.00002646352,  0.00019566666, -0.00000137769,  0.00006008336,  0.00001198573,  0.00000106480,  0.00004476035,  0.00000089287,  0.00002510770
1351446734871232,  0.01127029633, -0.00335253995,  0.00029885687, -0.00000090174,  0.00000937339,  0.00000327087,  0.01183993777,  0.00031924873, -0.00001733523, -0.00001478149,  0.00018454520,  0.01851045248, -0.00010496084,  0.00006772208, -0.00000732193,  0.00005492024,  0.00001404173,  0.00000124663,  0.00004176476,  0.00000106536,  0.00002159091
1351446740070383,  0.01132314062, -0.00381081623,  0.00027704573, -0.00000029869,  0.00000975568, -0.00002444191,  0.01056020051,  0.00042965108, -0.00003414746, -0.00002307396,  0.00016670270,  0.01845355827, -0.00018026248, -0.00005669811, -0.00002875582,  0.00005159565,  0.00001491546,  0.00000349348,  0.00004531666,  0.00000272444,  0.00002258227
1351446746269367,  0.01145037419, -0.00403049813,  0.00024570797,  0.00001088879,  0.00000841878, -0.00004025305,  0.00917597632,  0.00055334424, -0.00005788142, -0.00001000057,  0.00013881926,  0.01907108619, -0.00026388136, -0.00001330325, -0.00007017621,  0.00005913942,  0.00000237054,  0.00000884163,  0.00003083378,  0.00000094419,  0.00002183846
1351446799460688,  0.01158115403, -0.00400410640,  0.00020416460,  0.00000389652,  0.00001166564, -0.00005292758,  0.00788087909,  0.00074191927, -0.00004213192, -0.00002093898,  0.00011774519,  0.02014611992, -0.00031096056, -0.00014442566, -0.00004298822,  0.00005879575,  0.00000767898,  0.00000431073,  0.00003228652,  0.00000136394,  0.00001995489
1351446803060104,  0.01179025200, -0.00391741797,  0.00018267210,  0.00001228316,  0.00001005561, -0.00006913547,  0.00683251744,  0.00088296605, -0.00004936677, -0.00002312458,  0.00009234933,  0.02226392194, -0.00036522496, -0.00023256617, -0.00009572194,  0.00005469641,  0.00001054184,  0.00000807454,  0.00003113980,  0.00000299226,  0.00001996541
1351446807059465,  0.01193190249, -0.00364939136,  0.00015066667,  0.00000296632,  0.00000905453, -0.00008333613,  0.00593833999,  0.00105594499, -0.00004026436, -0.00001739465,  0.00008044396,  0.02454676117, -0.00047168169, -0.00022031053, -0.00004159306,  0.00005681913,  0.00001027188,  0.00000313246,  0.00002838748,  0.00000101208,  0.00001882935
1351446810858829,  0.01183761158, -0.00320526431,  0.00010534745,  0.00001048833,  0.00000985887, -0.00008624973,  0.00522440475,  0.00115712181, -0.00004813499, -0.00000287061,  0.00005773786,  0.02586575687, -0.00054918908, -0.00005180123, -0.00006781815,  0.00005975447,  0.00000352001,  0.00000533275,  0.00002329146,  0.00000057578,  0.00001915221
1351446814458256,  0.01148401885, -0.00273684640,  0.00011412849,  0.00000744647,  0.00000434400, -0.00008407752,  0.00472117338,  0.00103606432, -0.00003742074,  0.00000907400,  0.00004684683,  0.02566300998, -0.00052886094,  0.00009579804, -0.00005481732,  0.00006067358, -0.00000031006,  0.00000512857,  0.00002363325, -0.00000002282,  0.00001982230
1351446818057647,  0.01093446861, -0.00232970136,  0.00011724162,  0.00000448674,  0.00000304056, -0.00007029714,  0.00438391508,  0.00085958801, -0.00002652706,  0.00001337390,  0.00003895750,  0.02392865729, -0.00043461588,  0.00018972651, -0.00004227747,  0.00005772146, -0.00000544145,  0.00000468670,  0.00002326255, -0.00000058900,  0.00001795524
1351446821657071,  0.01041404495, -0.00199609235,  0.00009160597,  0.00000374203,  0.00000258643, -0.00005750455,  0.00415230205,  0.00074134636, -0.00002182557,  0.00001337076,  0.00003620860,  0.02194512333, -0.00035987179,  0.00017906189, -0.00002516616,  0.00005858014, -0.00000551851,  0.00000364021,  0.00002354299, -0.00000043565,  0.00001759220
1351446825256493,  0.00996648694, -0.00171099642,  0.00009920962,  0.00000128684,  0.00000192087, -0.00004621316,  0.00394920577,  0.00059966124, -0.00001502232,  0.00001140468,  0.00003472957,  0.02021495927, -0.00027991159,  0.00017522802, -0.00001943224,  0.00005676475, -0.00000900229,  0.00000340800,  0.00002455699, -0.00000074955,  0.00001721757
1351446828855916,  0.00960457503, -0.00146308806,  0.00010626919, -0.00000136489,  0.00000040102, -0.00003717986,  0.00377021357,  0.00049888011, -0.00001179148,  0.00000723098,  0.00003362477,  0.01890728718, -0.00024657486,  0.00010361513, -0.00001727296,  0.00005851892, -0.00000436579,  0.00000347789,  0.00002227274, -0.00000039954,  0.00001692351
1351446832455307,  0.00931518389, -0.00123846701,  0.00010996654, -0.00000144517, -0.00000032331, -0.00003302929,  0.00358473990,  0.00044333738, -0.00001035012,  0.00000529142,  0.00003169840,  0.01813785180, -0.00021601696,  0.00006474400, -0.00001690700,  0.00005805981, -0.00000323756,  0.00000384392,  0.00002079088, -0.00000035654,  0.00001605304
1351446836054718,  0.00907720153, -0.00103940911,  0.00012195618, -0.00000236612, -0.00000125315, -0.00002847473,  0.00340635576,  0.00040706496, -0.00000869850,  0.00000280226,  0.00002859657,  0.01777806015, -0.00019728573,  0.00001233184, -0.00001222484,  0.00005656968, -0.00000165527,  0.00000338393,  0.00002035401, -0.00000020593,  0.00001583830
1351446839654134,  0.00889734455, -0.00085805335,  0.00015531587, -0.00000318528, -0.00000356795, -0.00002757805,  0.00322458057,  0.00039308143, -0.00000745789, -0.00000123264,  0.00002006869,  0.01814562506, -0.00019741119, -0.00008364207, -0.00001377048,  0.00005390144,  0.00000422669,  0.00000369320,  0.00002239334,  0.00000035223,  0.00001626897
1351446843253565,  0.00878276050, -0.00067727637,  0.00024235984, -0.00000354557, -0.00000891836, -0.00003880341,  0.00307732664,  0.00039277336, -0.00000332463, -0.00000415566,  0.00001058774,  0.01958205974, -0.00019877864, -0.00020175089, -0.00002281830,  0.00004719036,  0.00000811006,  0.00000363382,  0.00002728295,  0.00000111484,  0.00001633181
1351446847052933,  0.00872658975, -0.00045014042,  0.00034056267, -0.00000794959, -0.00000999445, -0.00005665651,  0.00301438897,  0.00042462520, -0.00000300862, -0.00000484552, -0.00000276747,  0.02202137191, -0.00029666099, -0.00023916984, -0.00002045934,  0.00003515301,  0.00001013339,  0.00000117806,  0.00002711410,  0.00000082818,  0.00001419958
1351446852452054,  0.00835161136, -0.00031939746,  0.00029379699, -0.00001265481,  0.00000488547, -0.00005041637,  0.00303313312,  0.00047345925, -0.00000809917,  0.00000402686, -0.00001107856,  0.02223336344, -0.00032302097,  0.00022251536,  0.00001396666,  0.00003801366, -0.00000966165, -0.00000099465,  0.00002243422,  0.00000052309,  0.00001347262
1351446856251480,  0.00792473833, -0.00037176393,  0.00024363970, -0.00000939049,  0.00000464199, -0.00004378375,  0.00302824408,  0.00043721576, -0.00000657564,  0.00000339999, -0.00000541918,  0.02025465372, -0.00027873440,  0.00017204424,  0.00000578186,  0.00004884198, -0.00000456341, -0.00000067171,  0.00001877038,  0.00000016176,  0.00001366855
1351446859650880,  0.00755310540, -0.00041274690,  0.00022330085, -0.00000955455,  0.00000434616, -0.00004177748,  0.00303289339,  0.00039543242, -0.00000519518,  0.00000239479, -0.00000381686,  0.01872535295, -0.00023255581,  0.00015527168, -0.00000124109,  0.00005315983, -0.00000422671,  0.00000001738,  0.00002037644,  0.00000002104,  0.00001578139
1351446863250294,  0.00717018834, -0.00044041966,  0.00018536729, -0.00000868121,  0.00000308069, -0.00003847571,  0.00302704105,  0.00037160221, -0.00000484507,  0.00000186998, -0.00000457179,  0.01742526926, -0.00021312283,  0.00011696745, -0.00000080521,  0.00005459583, -0.00000113575, -0.00000036490,  0.00001832921, -0.00000001569,  0.00001501620
1351446866849707,  0.00684480897, -0.00046449858,  0.00014700403, -0.00000700705,  0.00000277741, -0.00003321955,  0.00302126779,  0.00035321091, -0.00000447830,  0.00000211865, -0.00000497810,  0.01632776464, -0.00018326237,  0.00010670400,  0.00000138524,  0.00005462596, -0.00000198196, -0.00000106513,  0.00001792856,  0.00000000284,  0.00001512208
1351446870449130,  0.00658410725, -0.00049066355,  0.00011359035, -0.00000587524,  0.00000277924, -0.00002799783,  0.00301771245,  0.00033323352, -0.00000377451,  0.00000253284, -0.00000389388,  0.01534443653, -0.00014185110,  0.00011146936,  0.00000352486,  0.00005447697, -0.00000546861, -0.00000196652,  0.00001989188,  0.00000022212,  0.00001673966
1351446874048525,  0.00635063713, -0.00051058982,  0.00007349947, -0.00000214861,  0.00000182133, -0.00002257270,  0.00300585908,  0.00031901878, -0.00000365210,  0.00000332528, -0.00000314502,  0.01444607483, -0.00012232699,  0.00009520992,  0.00000474785,  0.00005243856, -0.00000424888, -0.00000234852,  0.00001753516,  0.00000022027,  0.00001506185
1351446877648007,  0.00617589077, -0.00052651836,  0.00003634266,  0.00000448417,  0.00000148905, -0.00001602078,  0.00299853193,  0.00030453426, -0.00000415786,  0.00000398154, -0.00000333322,  0.01364059025, -0.00011731711,  0.00006506850, -0.00000381488,  0.00005128805,  0.00000274593,  0.00000036799,  0.00001696534, -0.00000001722,  0.00001470293
1351446881447327,  0.00605692920, -0.00054181902,  0.00003393643,  0.00000193732,  0.00000071579, -0.00001121276,  0.00298934108,  0.00026527501, -0.00000226854,  0.00000394100, -0.00000027812,  0.01284884052, -0.00007009560,  0.00008232701, -0.00000060590,  0.00004950566, -0.00000505999,  0.00000015657,  0.00001730055, -0.00000002304,  0.00001444015
1351446885046742,  0.00598067147, -0.00054846675,  0.00002519342,  0.00000225182,  0.00000072488, -0.00000813668,  0.00297894069,  0.00023671558, -0.00000255533,  0.00000358076,  0.00000128467,  0.01216921265, -0.00006579454,  0.00006482478, -0.00000117660,  0.00004757470,  0.00000142265,  0.00000044080,  0.00001619287,  0.00000002089,  0.00001391052
1351446888646169,  0.00592404041, -0.00054897702,  0.00001749021,  0.00000305268,  0.00000041803, -0.00000807255,  0.00296975503,  0.00021086495, -0.00000231901,  0.00000409987,  0.00000159534,  0.01154379380, -0.00005581016,  0.00006496778,  0.00000225338,  0.00004490450,  0.00000003446, -0.00000129656,  0.00001492970, -0.00000000036,  0.00001251574
1351446892245567,  0.00582759918, -0.00054762218,  0.00000692795,  0.00000588173,  0.00000013333, -0.00000753849,  0.00291690227,  0.00018909584, -0.00000276178,  0.00000489766,  0.00000279534,  0.01093111181, -0.00005386031,  0.00006096918, -0.00000159654,  0.00002094733, -0.00000060787,  0.00000023904,  0.00001272860,  0.00000004652,  0.00000755070
1351446895844982,  0.00579221057, -0.00054808753,  0.00000941166,  0.00000536793, -0.00000034072, -0.00000267752,  0.00290529197,  0.00015743061, -0.00000230505,  0.00000460234,  0.00000120708,  0.01041404098, -0.00004920880,  0.00004913809, -0.00000139112,  0.00002088329, -0.00000036672,  0.00000015695,  0.00001265937, -0.00000009122,  0.00000771284
1351446899444400,  0.00579393881, -0.00055006076,  0.00001701186,  0.00000383273, -0.00000021747,  0.00000347564,  0.00289690351,  0.00012700341, -0.00000215873,  0.00000334943,  0.00000051597,  0.01004308782, -0.00004973946,  0.00002903029,  0.00000040566,  0.00002010306, -0.00000159901,  0.00000010243,  0.00001135981,  0.00000002968,  0.00000672987
1351446904043659,  0.00582997352, -0.00055314683,  0.00001838625,  0.00000443822,  0.00000003374,  0.00000452105,  0.00290153520,  0.00010803920, -0.00000192401,  0.00000313955,  0.00000385328,  0.00983114651, -0.00004447598,  0.00001196198,  0.00000217704,  0.00002132831, -0.00000050120, -0.00000024427,  0.00001390614,  0.00000000514,  0.00000869607
1351446908642899,  0.00587313923, -0.00053439621,  0.00003509053,  0.00000115901, -0.00000191487,  0.00000750558,  0.00291937824,  0.00008726872,  0.00000060647,  0.00000185915,  0.00000706830,  0.00957833556, -0.00001125487,  0.00001592168,  0.00000069333,  0.00002335218, -0.00000233469,  0.00000017586,  0.00001789851,  0.00000027316,  0.00001083774
1351446912242325,  0.00591806445, -0.00050350315,  0.00004258801,  0.00000087978, -0.00000091176,  0.00000175868,  0.00297040746,  0.00007737401,  0.00000078440,  0.00000120005,  0.00000798920,  0.00953391100,  0.00000768402, -0.00000352972, -0.00000014160,  0.00003194300, -0.00000277823,  0.00000033512,  0.00002424384,  0.00000017068,  0.00001927790
1351446915641811,  0.00594780574, -0.00046400453,  0.00004080615, -0.00000170362, -0.00000014602,  0.00000455861,  0.00299370177,  0.00007711357, -0.00000054118, -0.00000031662,  0.00000969231,  0.00965137334,  0.00002130901, -0.00001800226,  0.00000181070,  0.00003194564, -0.00000054260, -0.00000009613,  0.00002499514,  0.00000001127,  0.00002109015
1351446923840427,  0.00599834583, -0.00042229566,  0.00004375165, -0.00000143158, -0.00000039495,  0.00000754973,  0.00300019562,  0.00007937677,  0.00000010850, -0.00000047621,  0.00000826184,  0.00987061918,  0.00002394520, -0.00003078261,  0.00000096600,  0.00003234990, -0.00000016469,  0.00000040044,  0.00002500459,  0.00000004813,  0.00002158399
1351446927639830,  0.00607893903, -0.00037892932,  0.00004225418, -0.00000224397, -0.00000031030,  0.00001142171,  0.00301448733,  0.00009174847,  0.00000059493, -0.00000138898,  0.00000772451,  0.01025717964,  0.00002848193, -0.00004718744,  0.00000018060,  0.00003208012, -0.00000068965,  0.00000053475,  0.00002516546,  0.00000002457,  0.00002158666
1351446931239223,  0.00620838798, -0.00034850951,  0.00004572303, -0.00000228016, -0.00000084343,  0.00001210854,  0.00302256933,  0.00010462536,  0.00000096109, -0.00000181917,  0.00000566393,  0.01078217697,  0.00003358003, -0.00005677021, -0.00000160276,  0.00003084258, -0.00000071439,  0.00000002383,  0.00001953259,  0.00000014590,  0.00001530373
1351446934838644,  0.00639510543, -0.00032647681,  0.00005193176, -0.00000202602, -0.00000117632,  0.00001859038,  0.00304105787,  0.00011719283,  0.00000114634, -0.00000215618,  0.00000713584,  0.01150543461,  0.00004022802, -0.00007600414, -0.00000226709,  0.00002320903, -0.00000255376, -0.00000009068,  0.00002276293,  0.00000040731,  0.00001341848
1351446940637693,  0.00657512741, -0.00034678788,  0.00006169708,  0.00000202180, -0.00000124128,  0.00002574759,  0.00308740292,  0.00011266939,  0.00000115345,  0.00000091293,  0.00000288063,  0.01195830132,  0.00009456319,  0.00003562691, -0.00000392760,  0.00003752487,  0.00000233680, -0.00000016220,  0.00002811991,  0.00000007106,  0.00001962072
1351446944237106,  0.00658986487, -0.00045683308,  0.00006906248,  0.00000043601, -0.00000210030,  0.00002488441,  0.00308383973,  0.00010812427,  0.00000155397,  0.00000108747,  0.00000727506,  0.01167407164,  0.00008109614,  0.00003010426,  0.00000083887,  0.00004406099, -0.00000567696,  0.00000033035,  0.00002680144,  0.00000013133,  0.00001762335
1351446947636558,  0.00657227683, -0.00054807765,  0.00007923619, -0.00000039311, -0.00000243826,  0.00002543588,  0.00304577627,  0.00009817886,  0.00000104567,  0.00000077037,  0.00001562147,  0.01149195351,  0.00007397369,  0.00002303912,  0.00000304378,  0.00004555036, -0.00000093283,  0.00000113181,  0.00002922217,  0.00000020853,  0.00002133694
1351446951235976,  0.00654710472, -0.00061598613,  0.00009104131, -0.00000061862, -0.00000377619,  0.00002524555,  0.00296940602,  0.00009261771,  0.00000173843,  0.00000000225,  0.00001725797,  0.01143088109,  0.00006623346,  0.00000290988,  0.00000161659,  0.00003604191,  0.00000270092,  0.00000070157,  0.00003160248,  0.00000079007,  0.00002026651
1351446954835389,  0.00648801341, -0.00066752043,  0.00010457795, -0.00000155782, -0.00000327834,  0.00001975860,  0.00285011086,  0.00008562636,  0.00000051153,  0.00000020563,  0.00001331109,  0.01146025626,  0.00004597642, -0.00002052638,  0.00000213302,  0.00002739520,  0.00000145401,  0.00000098200,  0.00002436920,  0.00000055656,  0.00001336963
1351446958434800,  0.00642920645, -0.00068475178,  0.00012518512, -0.00000180578, -0.00000378828,  0.00001419891,  0.00272803369,  0.00008599172,  0.00000141950, -0.00000029436,  0.00001653159,  0.01176457368,  0.00001997569, -0.00004420102, -0.00000075237,  0.00002543786,  0.00000200754,  0.00000072073,  0.00002631902,  0.00000049029,  0.00001387139
1351446962034214,  0.00637424064, -0.00067283671,  0.00014769383, -0.00000181386, -0.00000387204,  0.00000569440,  0.00258845004,  0.00008850110,  0.00000138987, -0.00000073020,  0.00001773017,  0.01230768584, -0.00000518272, -0.00007192988, -0.00000371364,  0.00002507461,  0.00000275404,  0.00000082906,  0.00002387053,  0.00000055838,  0.00001266300
1351446965833601,  0.00629916648, -0.00062410203,  0.00017334397, -0.00000387307, -0.00000270500, -0.00000207773,  0.00243383924,  0.00009623887,  0.00000243559, -0.00000213448,  0.00001761165,  0.01306867401, -0.00007545301, -0.00007789476, -0.00000352663,  0.00002580798,  0.00000128814,  0.00000003981,  0.00002013179,  0.00000030472,  0.00001175149
1351446973632325,  0.00627601910, -0.00056390079,  0.00020586850, -0.00000195327, -0.00000448041, -0.00000862986,  0.00230100270,  0.00010215242,  0.00000236399, -0.00000149554,  0.00001560581,  0.01418200112, -0.00004516343, -0.00014125666, -0.00001569457,  0.00002391182,  0.00000471115,  0.00000105319,  0.00002117109,  0.00000118761,  0.00001082414
1351446979031461,  0.00619529238, -0.00047836830,  0.00020450744, -0.00000590664,  0.00000123491, -0.00000529336,  0.00222920829,  0.00012370915,  0.00000147831, -0.00000451783,  0.00001778401,  0.01471052589, -0.00015481244, -0.00000548373,  0.00000472566,  0.00002514207, -0.00000239440, -0.00000088673,  0.00001831862,  0.00000071285,  0.00001067057
1351446982630870,  0.00613100143, -0.00041656063,  0.00017159877, -0.00000457179,  0.00000101108, -0.00000306588,  0.00220811613,  0.00014996682,  0.00000135438, -0.00000447974,  0.00002336867,  0.01475179695, -0.00014762525, -0.00000798660,  0.00000468699,  0.00002665521,  0.00000013674, -0.00000052062,  0.00002772302,  0.00000105350,  0.00001439305
1351446986230315,  0.00607277731, -0.00035270435,  0.00014333459, -0.00000351727,  0.00000064962, -0.00000001868,  0.00214887484,  0.00017449142,  0.00000113391, -0.00000408604,  0.00002170480,  0.01509027069, -0.00014786806, -0.00003683855,  0.00000389927,  0.00002919418,  0.00000127301, -0.00000065364,  0.00002611229,  0.00000084544,  0.00001533624
1351446989829692,  0.00601675005, -0.00029997023,  0.00010734798, -0.00000179264,  0.00000132440,  0.00000098764,  0.00207665307,  0.00020057279, -0.00000114812, -0.00000329143,  0.00001679916,  0.01562943382, -0.00016164464, -0.00004783769, -0.00000379384,  0.00002982360,  0.00000245010, -0.00000005235,  0.00002244319,  0.00000057485,  0.00001419569
1351446993629073,  0.00596767126, -0.00025273757,  0.00007123411,  0.00000013816,  0.00000194915,  0.00000240831,  0.00203549504,  0.00022277706, -0.00000138157, -0.00000255743,  0.00001518273,  0.01603804965, -0.00017546052, -0.00003804511,  0.00000533248,  0.00002975898,  0.00000235871, -0.00000058129,  0.00002224499,  0.00000037720,  0.00001380957
1351446997428457,  0.00591711615, -0.00021971190,  0.00005075099, -0.00000018111,  0.00000194056,  0.00000092772,  0.00200576304,  0.00023718418, -0.00000115048, -0.00000285203,  0.00001340586,  0.01648050259, -0.00018348036, -0.00005193290,  0.00000729846,  0.00002820484,  0.00000224540, -0.00000083474,  0.00002004132,  0.00000040544,  0.00001214048
1351447001027862,  0.00587225980, -0.00020543122,  0.00001524968,  0.00000097407,  0.00000200914, -0.00000190167,  0.00198714599,  0.00025420322, -0.00000224722, -0.00000165092,  0.00001100715,  0.01685362364, -0.00020074881, -0.00001338815,  0.00000985478,  0.00002900063,  0.00000090845, -0.00000099053,  0.00001709917,  0.00000015158,  0.00001113125
1351447004627292,  0.00585290560, -0.00020832121, -0.00001010134,  0.00000224977,  0.00000130925, -0.00000348827,  0.00198205027,  0.00025938158, -0.00000292942, -0.00000040265,  0.00001099340,  0.01663168110, -0.00018895529,  0.00005148717,  0.00000912823,  0.00002904584, -0.00000217635, -0.00000091238,  0.00001743287,  0.00000036616,  0.00001122537
1351447008226701,  0.00585394504, -0.00021046066, -0.00002352082,  0.00000286962,  0.00000028267, -0.00000155052,  0.00198535354,  0.00025608199, -0.00000241943,  0.00000076828,  0.00001262779,  0.01608864546, -0.00014880803,  0.00009537788,  0.00001098437,  0.00002753457, -0.00000480282, -0.00000106434,  0.00001979171,  0.00000063650,  0.00001141917
1351447012026072,  0.00585854571, -0.00021089919, -0.00003567445,  0.00000323749,  0.00000135886, -0.00000073533,  0.00198096068,  0.00025260521, -0.00000286127, -0.00000055198,  0.00001378552,  0.01561284685, -0.00015986360,  0.00002663431,  0.00000725124,  0.00002956847, -0.00000020363, -0.00000078838,  0.00001809846,  0.00000030394,  0.00001155408